User: anonymous   Login
Location: Lødingen
(68.4072°N, 15.9919°E)
Time: 20:46:59
(UTC+02:00)
Language:

BlueWalker 3 - Orbit

View from above orbital plane
View from above orbital plane
View from above satellite
View from above satellite

Ground track
Ground track

The orbit data is extracted from the following two-line orbital elements,

1 53807U 22111AL  24285.54101053  .00031489  00000-0  11076-2 0  9992
2 53807  53.2355  16.4464 0008966  87.5543 272.6485 15.29069014116014
Epoch (UTC): 11 October 2024 12:59:03
Eccentricity: 0.0008966
inclination: 53.2355°
perigee height: 472 km
apogee height: 485 km
right ascension of ascending node: 16.4464°
argument of perigee: 87.5543°
revolutions per day: 15.29069014
mean anomaly at epoch: 272.6485°
orbit number at epoch: 11601

The dashed part of the orbit path shows where the satellite is in the earth's shadow,  

DLR